Location: Claremont
(33.9858°S, 18.4575°E)
Time: 09:48:51
(UTC+00:00)

BREEZE-M DEB (TANK) - Pass Details

Date: 03 March 2021
Orbit: 289 x 13928 km, 46.0° (Epoch: 19 April)

Event Time Altitude Azimuth Distance (km) Brightness Sun altitude
Rises 18:52:57 0° 269° (W) 2,660 7.1 -19.4°
Reaches altitude 10° 18:56:12 10° 236° (SW) 1,271 5.3 -20.1°
Maximum altitude 18:57:25 13° 204° (SSW) 1,044 4.4 -20.3°
Enters shadow 18:58:19 11° 177° (S) 1,115 4.1 -20.5°
